TimeEDT,TemperatureF,Dew PointF,Humidity,Sea Level PressureIn,VisibilityMPH,Wind Direction,Wind SpeedMPH,Gust SpeedMPH,PrecipitationIn,Events,Conditions,WindDirDegrees,DateUTC
12:58 AM,64.9,55.0,70,30.14,10.0,SE,6.9,-,N/A,,Mostly Cloudy,140,2013-04-29 04:58:00
1:58 AM,64.9,55.0,70,30.12,10.0,SSE,10.4,-,N/A,,Overcast,160,2013-04-29 05:58:00
2:58 AM,64.9,55.0,70,30.10,10.0,SSE,5.8,-,N/A,,Overcast,160,2013-04-29 06:58:00
3:58 AM,64.9,55.9,73,30.09,10.0,SSE,5.8,-,N/A,,Overcast,150,2013-04-29 07:58:00
4:58 AM,64.9,57.0,75,30.08,10.0,SSE,5.8,-,N/A,,Overcast,160,2013-04-29 08:58:00
5:58 AM,64.9,57.9,78,30.08,10.0,South,6.9,-,N/A,,Overcast,180,2013-04-29 09:58:00
6:58 AM,64.9,57.9,78,30.09,10.0,SSE,8.1,-,N/A,,Unknown,160,2013-04-29 10:58:00
7:58 AM,66.9,59.0,76,30.08,10.0,South,9.2,-,0.00,,Overcast,180,2013-04-29 11:58:00
8:58 AM,64.0,61.0,90,30.10,4.0,SW,5.8,-,0.04,Rain,Light Rain,230,2013-04-29 12:58:00
9:58 AM,64.0,61.0,90,30.11,5.0,SW,9.2,-,0.05,Rain,Light Rain,230,2013-04-29 13:58:00
10:58 AM,64.0,61.0,90,30.12,7.0,SW,11.5,-,0.06,Rain,Light Rain,230,2013-04-29 14:58:00
11:32 AM,62.6,59.0,88,30.11,2.0,SSW,5.8,-,0.08,Rain,Heavy Rain,200,2013-04-29 15:32:00
11:45 AM,62.6,60.8,94,30.11,3.0,South,5.8,-,0.12,Rain,Rain,180,2013-04-29 15:45:00
11:58 AM,62.1,60.1,93,30.11,4.0,South,6.9,-,0.15,Rain,Rain,170,2013-04-29 15:58:00
12:58 PM,63.0,61.0,93,30.08,3.0,SE,6.9,-,0.13,Rain,Rain,130,2013-04-29 16:58:00
4:58 PM,66.0,63.0,90,30.01,8.0,SSW,11.5,-,N/A,,Overcast,210,2013-04-29 20:58:00
5:58 PM,66.0,63.0,90,30.01,10.0,SW,12.7,-,N/A,,Mostly Cloudy,220,2013-04-29 21:58:00
6:15 PM,64.4,62.6,94,30.01,9.0,SW,12.7,-,N/A,,Mostly Cloudy,230,2013-04-29 22:15:00
6:32 PM,64.4,62.6,94,30.00,9.0,SW,10.4,-,N/A,,Mostly Cloudy,230,2013-04-29 22:32:00
6:58 PM,64.0,61.0,90,30.01,10.0,SW,6.9,-,N/A,,Mostly Cloudy,230,2013-04-29 22:58:00
7:58 PM,64.0,61.0,90,30.02,10.0,WSW,3.5,-,N/A,,Scattered Clouds,250,2013-04-29 23:58:00
8:58 PM,64.0,62.1,93,30.03,9.0,SSW,5.8,-,N/A,,Overcast,210,2013-04-30 00:58:00
9:58 PM,64.0,62.1,93,30.04,10.0,SSW,8.1,-,0.00,Rain,Light Rain,210,2013-04-30 01:58:00
10:58 PM,63.0,62.1,97,30.02,10.0,South,5.8,-,0.01,,Mostly Cloudy,180,2013-04-30 02:58:00
11:58 PM,63.0,62.1,97,30.01,10.0,Calm,Calm,-,N/A,,Overcast,0,2013-04-30 03:58:00